Regional Weather Roundup
Issued by NWS

Home | Current Version | Previous Version | Text Only | Print | Product List | Glossary On
Versions: 1 2 3 4 5 6 7 8 9 10 11 12 13 14 15 16 17 18 19 20 21 22 23 24 25 26 27 28 29 30 31 32 33 34 35 36 37 38 39 40 41 42 43 44 45 46 47 48 49 50
000
ASUS44 KOUN 282210
RWROK

WEATHER ROUNDUP FOR OKLAHOMA
NATIONAL WEATHER SERVICE NORMAN OK
500 PM CDT SAT MAR 28 2015

NOTE: "FAIR" INDICATES FEW OR NO CLOUDS BELOW 12,000 FEET WITH NO
      SIGNIFICANT WEATHER AND/OR OBSTRUCTIONS TO VISIBILITY.

OKZ001>007-009>012-014-015-017-282300-
NORTHWEST OKLAHOMA AND THE PANHANDLE

CITY           SKY/WX    TMP DP  RH WIND       PRES   REMARKS
GAGE           SUNNY     86  33  15 CALM      29.92F
GUYMON         MOSUNNY   81  32  17 SE7       29.93F
ENID/WOODRING  MOSUNNY   79  45  29 SE6       29.94F
$$

OKZ016-021>023-033>039-044-045-282300-
SOUTHWEST OKLAHOMA

CITY           SKY/WX    TMP DP  RH WIND       PRES   REMARKS
LAWTON/REGL    SUNNY     78  48  34 SE10      29.94F
LAWTON/FT SILL SUNNY     78  50  37 S9        29.93F
FREDERICK      SUNNY     80  49  33 SE13      29.91F
CLINTON        SUNNY     82  42  24 E13       29.95F
HOBART         SUNNY     82  43  25 E9        29.94S
ALTUS AFB      SUNNY     82  47  29 SE10      29.93S
$$

OKZ018>020-024>031-282300-
CENTRAL OKLAHOMA

CITY           SKY/WX    TMP DP  RH WIND       PRES   REMARKS
OKLAHOMA CITY  MOSUNNY   77  44  30 E7        29.96F
OKC/WILEY POST SUNNY     77  45  32 SE9       29.96F
OKC/TINKER AFB SUNNY     76  45  32 VRB5      29.95F
STILLWATER     SUNNY     74  44  34 E10       29.98S
GUTHRIE        SUNNY     77  42  28 SE9       29.96S
$$

OKZ008-013-054>072-282300-
NORTHEAST OKLAHOMA

CITY           SKY/WX    TMP DP  RH WIND       PRES   REMARKS
TULSA          MOSUNNY   68  41  37 SE12      30.01S
TULSA/JONES    SUNNY     68  41  37 SE9       30.01F
PONCA CITY     SUNNY     75  42  30 SE10G20   29.97F
BARTLESVILLE   SUNNY     69  42  37 SE9       30.02F
MUSKOGEE       SUNNY     67  40  37 SE10G20   30.05S
$$

OKZ032-040>043-046>053-073>077-282300-
SOUTH CENTRAL/SOUTHEAST OKLAHOMA

CITY           SKY/WX    TMP DP  RH WIND       PRES   REMARKS
ARDMORE/DWNTWN SUNNY     77  41  27 S7        29.96F
MCALESTER      SUNNY     73  40  30 S7        30.01F
$$




USA.gov is the U.S. government's official web portal to all federal, state and local government web resources and services.